Location: Chavenne
(46.6022°N, 3.2951°E)
Time: 01:51:15
(UTC+00:00)

Cosmos 1825 - Pass Details

Date: 09 April 2020
Orbit: 502 x 509 km, 82.5° (Epoch: 05 June)

Event Time Altitude Azimuth Distance (km) Brightness Sun altitude
Rises 20:01:17 0° 8° (N) 2,629 6.1 -15.8°
Reaches altitude 10° 20:04:22 10° 36° (NE) 1,735 4.8 -16.3°
Enters shadow 20:05:54 13° 59° (ENE) 1,526 4.3 -16.5°
